Home   Weather   United Kingdom   Grimsby   Past weeks
Flag for United Kingdom

Past Weather in Grimsby, England, United Kingdom — April 2011

Currently: 72 °F. Passing clouds. (Weather station: Humberside, United Kingdom). See more current weather

April 2011 Weather in Grimsby — Graph

°F

High & Low Weather Summary for April 2011

 TemperatureHumidityPressure
High77 °F (Apr 23, 1:50 pm)100% (Apr 4, 7:50 am)30.39 "Hg (Apr 4, 7:50 am)
Low37 °F (Apr 13, 1:50 am)36% (Apr 12, 3:20 pm)29.65 "Hg (Apr 2, 9:20 am)
Average53 °F77%30.10 "Hg
* Reported Apr 1 12:20 am — Apr 30 11:50 pm, Grimsby. Weather by CustomWeather, © 2021

Note: Actual official high and low records may vary slightly from our data, if they occured in-between our weather recording intervals... More about our weather records

Grimsby Weather History for April 1, 2011

Scroll right to see more
 ConditionsComfort  
Time TempWeatherWind HumidityBarometerVisibility
12:20 am
Fri, Apr 1
50 °FCool.9 mph88%29.89 "HgN/A
12:50 am52 °FCool.14 mph88%29.89 "HgN/A
1:20 am52 °FCool.15 mph88%29.89 "HgN/A
1:50 am52 °FCool.18 mph88%29.92 "HgN/A
2:20 am52 °FCool.16 mph88%29.92 "HgN/A
2:50 am54 °FPassing clouds.17 mph82%29.92 "HgN/A
3:20 am54 °FPassing clouds.16 mph82%29.89 "HgN/A
3:50 am54 °FPassing clouds.15 mph82%29.92 "HgN/A
4:20 am54 °FPassing clouds.17 mph88%29.92 "HgN/A
4:50 am54 °FPassing clouds.16 mph88%29.92 "HgN/A
5:20 am54 °FPassing clouds.18 mph88%29.89 "HgN/A
5:50 am54 °FPartly cloudy.15 mph94%29.89 "HgN/A
6:20 am54 °FPassing clouds.17 mph94%29.89 "HgN/A
6:50 am54 °FScattered clouds.20 mph94%29.89 "HgN/A
7:20 am55 °FScattered clouds.18 mph88%29.92 "HgN/A
7:50 am55 °FBroken clouds.20 mph88%29.89 "HgN/A
8:20 am57 °FBroken clouds.22 mph88%29.92 "HgN/A
8:50 am57 °FBroken clouds.21 mph88%29.92 "HgN/A
9:20 am57 °FBroken clouds.24 mph88%29.92 "HgN/A
9:50 am57 °FLight rain. Partly sunny.25 mph88%29.92 "HgN/A
10:20 am59 °FLight rain. Partly sunny.22 mph82%29.92 "HgN/A
10:50 am59 °FPartly sunny.24 mph82%29.92 "HgN/A
11:20 am59 °FPartly sunny.25 mph82%29.92 "HgN/A
11:50 am59 °FPartly sunny.25 mph82%29.92 "HgN/A
12:20 pm61 °FPartly sunny.25 mph77%29.92 "HgN/A
12:50 pm61 °FPartly sunny.25 mph77%29.92 "HgN/A
1:20 pm61 °FPartly sunny.24 mph72%29.92 "HgN/A
1:50 pm61 °FScattered clouds.25 mph72%29.92 "HgN/A
2:20 pm61 °FScattered clouds.25 mph72%29.92 "HgN/A
2:50 pm63 °FScattered clouds.28 mph68%29.92 "HgN/A
3:20 pm63 °FScattered clouds.26 mph68%29.89 "HgN/A
3:50 pm61 °FPartly sunny.22 mph72%29.89 "HgN/A
4:20 pm63 °FBroken clouds.21 mph64%29.92 "HgN/A
4:50 pm61 °FBroken clouds.20 mph72%29.89 "HgN/A
5:20 pm61 °FBroken clouds.15 mph72%29.89 "HgN/A
5:50 pm61 °FBroken clouds.13 mph72%29.89 "HgN/A
6:20 pm61 °FBroken clouds.10 mph72%29.89 "HgN/A
6:50 pm61 °FScattered clouds.13 mph72%29.89 "HgN/A
7:20 pm61 °FScattered clouds.13 mph72%29.89 "HgN/A
7:50 pm59 °FPassing clouds.15 mph72%29.89 "HgN/A
8:20 pm59 °FPassing clouds.16 mph77%29.89 "HgN/A
8:50 pm59 °FPassing clouds.20 mph77%29.89 "HgN/A
9:20 pm57 °FPassing clouds.17 mph77%29.86 "HgN/A
9:50 pm55 °FPartly cloudy.16 mph82%29.86 "HgN/A
10:20 pm55 °FCool.20 mph82%29.86 "HgN/A
10:50 pm55 °FCool.16 mph82%29.86 "HgN/A
11:20 pm54 °FCool.16 mph88%29.83 "HgN/A
11:50 pm55 °FCool.18 mph88%29.83 "HgN/A
Weather by CustomWeather, © 2021

See weather overview